Preview of NWS' New Version of Forecast
This preview is not operational and should not be used for support decisions.

Regional Weather Roundup (RWR)

Issued by National Weather Service (NWS)

                            
000
ASUS45 KABQ 200810
RWRNM 
NEW MEXICO REGIONAL WEATHER ROUNDUP
NATIONAL WEATHER SERVICE ALBUQUERQUE NM
200 AM MDT TUE AUG 20 2019

NOTE: "FAIR" MEANS FEW OR NO CLOUDS BELOW 12,000 FEET AGL WITH NO
       SIGNIFICANT WEATHER OR OBSTRUCTIONS TO VISION.

      THIS PRODUCT IS RELEASED AS TWO VERSIONS.  ONE VERSION NEAR
      THE TOP OF THE HOUR CONTAINING PRELIMINARY DATA FROM ALBUQUERQUE
      AND OTHER STATIONS.  A FINAL VERSION WITH ADDITIONAL DATA IS 
      ISSUED ABOUT 10 MINUTES AFTER THE HOUR.
 
NMZ501-503-504-510>518-200900-
NORTHWEST PLATEAU/NORTHCENTRAL MOUNTAINS
  
CITY           SKY/WX    TMP DP  RH WIND       PRES   REMARKS
FARMINGTON     FAIR      63  23  21 NE7       30.16R                  
LOS ALAMOS       N/A     69  38  32 SW7       30.33F                  
SANTA FE       FAIR      68  43  40 CALM      30.25F                  
TAOS             N/A     57  35  43 N6        30.33F                  
ANGEL FIRE     FAIR      43  38  81 CALM      30.44S                  

$$
NMZ402-403-502-505>509-200900-
WESTCENTRAL MOUNTAINS/SOUTHWEST MOUNTAINS
  
CITY           SKY/WX    TMP DP  RH WIND       PRES   REMARKS
GALLUP         FAIR      57  23  26 CALM      30.26S                  
GRANTS         FAIR      55  31  40 CALM      30.28S                  
SILVER CITY    CLOUDY    69  40  35 N10       30.16S                  

$$
NMZ407-409-411-412-200900-
SOUTHERN DESERTS
  
CITY           SKY/WX    TMP DP  RH WIND       PRES   REMARKS
DEMING         FAIR      81  50  33 S8        30.07F                  
LAS CRUCES     FAIR      79  48  33 W5        30.09F                  
HOLLOMAN AFB   FAIR      80  49  34 CALM      30.08                   
ALAMOGORDO     FAIR      77  46  33 E3        30.08F                  
T OR C         FAIR      78  45  30 CALM      30.11S                  

$$
NMZ519>523-200900-
CENTRAL VALLEYS/CENTRAL HIGHLANDS
  
CITY           SKY/WX    TMP DP  RH WIND       PRES   REMARKS
ALBUQUERQUE    FAIR      73  44  35 E7        30.16F                  
MORIARTY ARPT  FAIR      64  46  50 SE6       30.26S                  
CLINES CORNERS FAIR      65  44  46 S12       30.32S                  
BELEN          FAIR      71  42  34 S7        30.15F                  
SOCORRO        FAIR      74  42  32 S7        30.13S                  

$$
NMZ524>526-539-540-200900-
SOUTHCENTRAL MOUNTAINS
  
CITY           SKY/WX    TMP DP  RH WIND       PRES   REMARKS
RUIDOSO        FAIR      64  50  59 SW8       30.33S                  

$$
NMZ527>531-200900-
NORTHEAST HIGHLANDS/NORTHEAST PLAINS
  
CITY           SKY/WX    TMP DP  RH WIND       PRES   REMARKS
LAS VEGAS      FAIR      59  44  57 S8        30.31S                  
RATON          FAIR      63  44  50 W7        30.24S                  
CLAYTON        FAIR      72  49  44 SW9       30.14F                  

$$
NMZ532>537-200900-
EASTCENTRAL PLAINS
  
CITY           SKY/WX    TMP DP  RH WIND       PRES   REMARKS
TUCUMCARI      FAIR      72  50  45 W3        30.07S                  
CANNON AFB     NOT AVBL                                               
CLOVIS AIRPORT FAIR      77  57  50 S8        30.14R                  

$$
NMZ028-029-538-200900-
SOUTHEAST PLAINS
  
CITY           SKY/WX    TMP DP  RH WIND       PRES   REMARKS
ROSWELL        FAIR      86  53  32 S14       30.07S                  
ARTESIA        FAIR      84  54  34 S12       30.09S                  
CARLSBAD       FAIR      82  53  36 S9        30.05S                  
HOBBS          FAIR      81  54  39 S14       30.10S                  


$$